Location: Haulchin
(50.3172°N, 3.4360°E)
Time: 10:31:07
(UTC+00:00)

Cosmos 1850 Rocket - Pass Details

Date: 23 May 2024
Orbit: 753 x 782 km, 74.0° (Epoch: 14 June)

Event Time Altitude Azimuth Distance (km) Brightness Sun altitude
Exits shadow 01:46:17 20° 194° (SSW) 1,746 5.3 -14.0°
Maximum altitude 01:50:01 76° 112° (ESE) 801 4.1 -13.7°
Drops below altitude 10° 01:55:18 10° 27° (NNE) 2,321 8.0 -13.3°
Sets 01:57:40 0° 26° (NNE) 3,247 9.2 -13.1°
